OH6GKW Weather Reports


time (UTC)temp
C
wind
direction
speed
KPH
gust
KPH
rain 1hr
cm
rain 24hr
cm
rain mn
cm
humidity
%
barometer
mb
20260507100336 8 182 4.8 0.0 0.00 0.00 0.00 55 1013.4
20260507095853 7 125 4.8 0.0 0.00 0.00 0.00 57 1013.6
20260507095349 7 179 3.2 0.0 0.00 0.00 0.00 59 1013.6
20260507094844 7 161 3.2 0.0 0.00 0.00 0.00 60 1013.6
20260507094337 7 173 4.8 0.0 0.00 0.00 0.00 62 1013.7
20260507093829 7 137 4.8 0.0 0.00 0.00 0.00 62 1013.7
20260507093343 7 114 3.2 0.0 0.00 0.00 0.00 63 1013.7
20260507092834 6 165 4.8 0.0 0.00 0.00 0.00 63 1013.8
20260507092347 6 163 4.8 0.0 0.00 0.00 0.00 62 1013.8
20260507091842 6 159 3.2 0.0 0.00 0.00 0.00 64 1013.8
20260507091335 6 175 3.2 0.0 0.00 0.00 0.00 66 1014.0
20260507090854 6 182 4.8 0.0 0.00 0.00 0.00 67 1014.0
20260507090353 6 223 6.4 0.0 0.00 0.00 0.00 69 1014.0
20260507085842 6 207 4.8 0.0 0.00 0.00 0.00 71 1014.1
20260507085338 6 180 4.8 0.0 0.00 0.00 0.00 72 1014.1
20260507084831 6 213 3.2 0.0 0.00 0.00 0.00 73 1014.1
20260507084344 6 220 1.6 0.0 0.00 0.00 0.00 78 1014.1
20260507083840 5 244 1.6 0.0 0.00 0.00 0.00 79 1014.1
20260507083334 5 272 1.6 0.0 0.00 0.00 0.00 82 1014.1
20260507082855 5 305 1.6 0.0 0.00 0.00 0.00 82 1014.2
20260507082352 5 309 3.2 0.0 0.00 0.00 0.00 80 1014.2
20260507081843 5 228 4.8 0.0 0.00 0.00 0.00 78 1014.2
20260507081336 5 278 6.4 0.0 0.00 0.00 0.00 75 1014.0
20260507080828 6 267 4.8 0.0 0.00 0.00 0.00 74 1014.0
20260507080344 6 272 6.4 0.0 0.00 0.00 0.00 76 1014.0
20260507075836 6 285 6.4 0.0 0.00 0.00 0.00 76 1014.0
20260507075329 6 267 3.2 0.0 0.00 0.00 0.00 76 1014.0
20260507074841 6 250 3.2 0.0 0.00 0.00 0.00 77 1014.0
20260507074334 5 206 4.8 0.0 0.00 0.00 0.00 77 1013.8
20260507073830 5 204 3.2 0.0 0.00 0.00 0.00 78 1013.8
20260507073357 5 226 3.2 0.0 0.00 0.00 0.00 78 1013.8
20260507072843 5 227 4.8 0.0 0.00 0.00 0.00 78 1013.7
20260507072340 5 279 6.4 0.0 0.00 0.00 0.00 78 1013.7
20260507071832 5 315 8.0 0.0 0.00 0.00 0.00 78 1013.7
20260507071348 5 254 9.7 0.0 0.00 0.00 0.00 79 1013.4
20260507070840 5 293 9.7 0.0 0.00 0.00 0.00 79 1013.4
20260507070335 5 276 9.7 0.0 0.00 0.00 0.00 78 1013.4
20260507065828 5 276 11.3 0.0 0.00 0.00 0.00 78 1013.5
20260507065352 5 292 8.0 0.0 0.00 0.00 0.00 77 1013.5
20260507064843 5 286 8.0 0.0 0.00 0.00 0.00 76 1013.5
20260507064336 5 233 9.7 0.0 0.00 0.00 0.00 75 1013.5
20260507063833 6 267 9.7 0.0 0.00 0.00 0.00 75 1013.5
20260507063344 6 279 9.7 0.0 0.00 0.00 0.00 75 1013.5
20260507062835 6 259 9.7 0.0 0.00 0.00 0.00 74 1013.2
20260507062331 6 299 11.3 0.0 0.00 0.00 0.00 74 1013.2
20260507061843 6 251 9.7 0.0 0.00 0.00 0.00 73 1013.2
20260507061336 6 271 9.7 0.0 0.00 0.00 0.00 75 1013.1
20260507060832 6 240 9.7 0.0 0.00 0.00 0.00 75 1013.1
20260507060401 5 289 8.0 0.0 0.00 0.00 0.00 76 1013.1
20260507055851 5 255 6.4 0.0 0.00 0.00 0.00 76 1012.9
20260507055343 5 268 6.4 0.0 0.00 0.00 0.00 76 1012.9
20260507054835 5 254 4.8 0.0 0.00 0.00 0.00 77 1012.9
20260507054345 5 262 6.4 0.0 0.00 0.00 0.00 77 1012.9
20260507053836 5 165 6.4 0.0 0.00 0.00 0.00 76 1012.9
20260507053331 4 262 4.8 0.0 0.00 0.00 0.00 76 1012.9
20260507052841 4 228 3.2 0.0 0.00 0.00 0.00 76 1012.8
20260507052346 4 241 3.2 0.0 0.00 0.00 0.00 76 1012.8
20260507051842 3 197 1.6 0.0 0.00 0.00 0.00 77 1012.8
20260507051333 3 182 1.6 0.0 0.00 0.00 0.00 76 1012.7
20260507050844 3 235 3.2 0.0 0.00 0.00 0.00 76 1012.7
20260507050339 3 220 3.2 0.0 0.00 0.00 0.00 76 1012.7
20260507045830 3 192 3.2 0.0 0.00 0.00 0.00 76 1012.8
20260507045339 3 203 3.2 0.0 0.00 0.00 0.00 76 1012.8
20260507044831 3 195 3.2 0.0 0.00 0.00 0.00 76 1012.8
20260507044359 3 228 4.8 0.0 0.00 0.00 0.00 76 1012.7
20260507043852 3 204 4.8 0.0 0.00 0.00 0.00 76 1012.7
20260507043351 2 185 3.2 0.0 0.00 0.00 0.00 77 1012.7
20260507042841 2 206 4.8 0.0 0.00 0.00 0.00 78 1012.6
20260507042341 2 202 4.8 0.0 0.00 0.00 0.00 78 1012.6
20260507041834 2 179 3.2 0.0 0.00 0.00 0.00 79 1012.6
20260507041347 1 179 3.2 0.0 0.00 0.00 0.00 81 1012.6
20260507040840 1 193 0.0 0.0 0.00 0.00 0.00 82 1012.6
20260507040333 1 180 0.0 0.0 0.00 0.00 0.00 83 1012.6
20260507035844 1 180 0.0 0.0 0.00 0.00 0.00 84 1012.5
20260507035337 0 180 0.0 0.0 0.00 0.00 0.00 85 1012.5
20260507034830 0 180 0.0 0.0 0.00 0.00 0.00 86 1012.5
20260507034331 0 182 0.0 0.0 0.00 0.00 0.00 87 1012.5
20260507033854 0 189 0.0 0.0 0.00 0.00 0.00 87 1012.5
20260507033349 0 190 1.6 0.0 0.00 0.00 0.00 87 1012.5
20260507032839 0 196 3.2 0.0 0.00 0.00 0.00 88 1012.2
20260507032332 0 155 3.2 0.0 0.00 0.00 0.00 88 1012.2
20260507031845 0 189 1.6 0.0 0.00 0.00 0.00 88 1012.2
20260507031337 0 145 1.6 0.0 0.00 0.00 0.00 89 1012.3
20260507030830 0 173 1.6 0.0 0.00 0.00 0.00 89 1012.3
20260507030344 -1 182 1.6 0.0 0.00 0.00 0.00 89 1012.3
20260507025833 -1 178 1.6 0.0 0.00 0.00 0.00 89 1012.2
20260507025357 -1 171 1.6 0.0 0.00 0.00 0.00 89 1012.2
20260507024849 -1 186 1.6 0.0 0.00 0.00 0.00 89 1012.2
20260507024345 -1 186 0.0 0.0 0.00 0.00 0.00 89 1012.2
20260507023838 -1 176 0.0 0.0 0.00 0.00 0.00 89 1012.2
20260507023333 -1 172 0.0 0.0 0.00 0.00 0.00 89 1012.2
20260507022844 -1 172 0.0 0.0 0.00 0.00 0.00 88 1012.2
20260507022333 0 172 0.0 0.0 0.00 0.00 0.00 88 1012.2
20260507021829 0 172 0.0 0.0 0.00 0.00 0.00 88 1012.2
20260507021357 0 172 0.0 0.0 0.00 0.00 0.00 88 1012.2
20260507020852 0 166 1.6 0.0 0.00 0.00 0.00 87 1012.2
20260507020347 0 176 1.6 0.0 0.00 0.00 0.00 87 1012.2
20260507015842 0 193 1.6 0.0 0.00 0.00 0.00 87 1012.1
20260507015338 0 186 1.6 0.0 0.00 0.00 0.00 87 1012.1
20260507014831 0 186 1.6 0.0 0.00 0.00 0.00 87 1012.1
20260507014344 0 166 3.2 0.0 0.00 0.00 0.00 86 1012.1
20260507013839 0 179 4.8 0.0 0.00 0.00 0.00 86 1012.1
20260507013334 0 195 4.8 0.0 0.00 0.00 0.00 86 1012.1
20260507012841 0 193 4.8 0.0 0.00 0.00 0.00 86 1011.9
20260507012334 0 189 4.8 0.0 0.00 0.00 0.00 85 1011.9
20260507011858 0 190 3.2 0.0 0.00 0.00 0.00 85 1011.9
20260507011354 0 190 3.2 0.0 0.00 0.00 0.00 85 1012.0
20260507010850 0 172 3.2 0.0 0.00 0.00 0.00 85 1012.0
20260507010345 0 180 3.2 0.0 0.00 0.00 0.00 84 1012.0
20260507005836 0 180 3.2 0.0 0.00 0.00 0.00 84 1011.9
20260507005329 0 196 3.2 0.0 0.00 0.00 0.00 84 1011.9
20260507004842 0 190 4.8 0.0 0.00 0.00 0.00 84 1011.9
20260507004335 0 178 4.8 0.0 0.00 0.00 0.00 84 1011.9
20260507003854 0 142 4.8 0.0 0.00 0.00 0.00 85 1011.9
20260507003349 0 185 4.8 0.0 0.00 0.00 0.00 85 1011.9
20260507002843 0 189 3.2 0.0 0.00 0.00 0.00 86 1011.9
20260507002336 0 180 3.2 0.0 0.00 0.00 0.00 86 1011.9
20260507001848 0 195 3.2 0.0 0.00 0.00 0.00 86 1011.9
20260507001341 0 180 1.6 0.0 0.00 0.00 0.00 86 1011.7
20260507000833 0 176 0.0 0.0 0.00 0.00 0.00 85 1011.7
20260507000347 0 176 0.0 0.0 0.00 0.00 0.00 85 1011.7
20260506235838 0 176 0.0 0.0 0.00 0.00 0.00 85 1011.6
20260506235331 0 176 0.0 0.0 0.00 0.00 0.00 84 1011.6
20260506234854 0 176 0.0 0.0 0.00 0.00 0.00 84 1011.6
20260506234347 0 178 0.0 0.0 0.00 0.00 0.00 84 1011.5
20260506233839 0 187 1.6 0.0 0.00 0.00 0.00 84 1011.5
20260506233334 1 187 1.6 0.0 0.00 0.00 0.00 84 1011.5
20260506232829 1 183 0.0 0.0 0.00 0.00 0.00 84 1011.5
20260506232342 1 176 0.0 0.0 0.00 0.00 0.00 84 1011.5
20260506231839 1 176 0.0 0.0 0.00 0.00 0.00 84 1011.5
20260506231339 1 180 1.6 0.0 0.00 0.00 0.00 84 1011.4
20260506230832 1 185 1.6 0.0 0.00 0.00 0.00 83 1011.4
20260506230330 1 183 1.6 0.0 0.00 0.00 0.00 83 1011.4
20260506225837 1 193 1.6 0.0 0.00 0.00 0.00 83 1011.3
20260506225334 1 183 1.6 0.0 0.00 0.00 0.00 83 1011.3
20260506224857 1 193 1.6 0.0 0.00 0.00 0.00 83 1011.3
20260506224332 1 185 1.6 0.0 0.00 0.00 0.00 83 1011.2
20260506223843 1 178 1.6 0.0 0.00 0.00 0.00 82 1011.2
20260506223338 1 189 0.0 0.0 0.00 0.00 0.00 80 1011.2
20260506222828 2 193 0.0 0.0 0.00 0.00 0.00 80 1011.1
20260506222341 2 193 0.0 0.0 0.00 0.00 0.00 79 1011.1
20260506221837 2 196 0.0 0.0 0.00 0.00 0.00 79 1011.1
20260506221329 2 196 0.0 0.0 0.00 0.00 0.00 78 1011.0
20260506220849 2 196 1.6 0.0 0.00 0.00 0.00 78 1011.0
20260506220344 2 196 1.6 0.0 0.00 0.00 0.00 77 1011.0
20260506215833 2 200 1.6 0.0 0.00 0.00 0.00 76 1010.9
20260506215329 3 206 1.6 0.0 0.00 0.00 0.00 75 1010.9
20260506214841 3 195 1.6 0.0 0.00 0.00 0.00 75 1010.9
20260506214334 3 195 1.6 0.0 0.00 0.00 0.00 74 1010.7
20260506213847 3 199 3.2 0.0 0.00 0.00 0.00 73 1010.7
20260506213341 3 185 3.2 0.0 0.00 0.00 0.00 72 1010.7
20260506212835 3 203 3.2 0.0 0.00 0.00 0.00 71 1010.6
20260506212331 3 199 3.2 0.0 0.00 0.00 0.00 70 1010.6
20260506211851 3 216 3.2 0.0 0.00 0.00 0.00 70 1010.6
20260506211344 3 207 3.2 0.0 0.00 0.00 0.00 70 1010.5
20260506210836 4 221 4.8 0.0 0.00 0.00 0.00 70 1010.5
20260506210331 4 224 4.8 0.0 0.00 0.00 0.00 70 1010.5
20260506205845 4 193 3.2 0.0 0.00 0.00 0.00 70 1010.5
20260506205338 4 227 3.2 0.0 0.00 0.00 0.00 70 1010.5
20260506204830 4 200 3.2 0.0 0.00 0.00 0.00 70 1010.5
20260506204355 4 190 4.8 0.0 0.00 0.00 0.00 70 1010.5
20260506203849 4 210 4.8 0.0 0.00 0.00 0.00 71 1010.5
20260506203344 4 187 6.4 0.0 0.00 0.00 0.00 72 1010.5
20260506202835 3 199 4.8 0.0 0.00 0.00 0.00 73 1010.5
20260506202344 3 190 4.8 0.0 0.00 0.00 0.00 73 1010.5
20260506201836 3 190 4.8 0.0 0.00 0.00 0.00 74 1010.5
20260506201328 3 206 4.8 0.0 0.00 0.00 0.00 74 1010.5
20260506200840 3 192 4.8 0.0 0.00 0.00 0.00 74 1010.5
20260506200335 3 192 4.8 0.0 0.00 0.00 0.00 75 1010.5
20260506195857 3 195 4.8 0.0 0.00 0.00 0.00 75 1010.4
20260506195350 3 195 3.2 0.0 0.00 0.00 0.00 75 1010.4
20260506194842 3 206 3.2 0.0 0.00 0.00 0.00 76 1010.4
20260506194335 3 192 3.2 0.0 0.00 0.00 0.00 76 1010.4
20260506193835 3 189 3.2 0.0 0.00 0.00 0.00 75 1010.4
20260506193349 3 193 1.6 0.0 0.00 0.00 0.00 75 1010.4
20260506192839 3 185 0.0 0.0 0.00 0.00 0.00 74 1010.3
20260506192335 3 187 1.6 0.0 0.00 0.00 0.00 74 1010.3
20260506191848 4 187 1.6 0.0 0.00 0.00 0.00 73 1010.3
20260506191341 4 192 1.6 0.0 0.00 0.00 0.00 72 1010.3
20260506190833 4 196 1.6 0.0 0.00 0.00 0.00 71 1010.3
20260506190359 5 195 1.6 0.0 0.00 0.00 0.00 71 1010.3
20260506185850 5 195 1.6 0.0 0.00 0.00 0.00 71 1010.2
20260506185330 5 200 1.6 0.0 0.00 0.00 0.00 70 1010.2
20260506184850 5 199 3.2 0.0 0.00 0.00 0.00 70 1010.2
20260506184343 5 200 3.2 0.0 0.00 0.00 0.00 69 1010.0
20260506183838 5 207 1.6 0.0 0.00 0.00 0.00 68 1010.0
20260506183336 5 209 3.2 0.0 0.00 0.00 0.00 68 1010.0
20260506182846 6 196 4.8 0.0 0.00 0.00 0.00 67 1010.0
20260506182338 6 226 3.2 0.0 0.00 0.00 0.00 67 1010.0
20260506181830 6 224 3.2 0.0 0.00 0.00 0.00 67 1010.0
20260506181344 6 227 3.2 0.0 0.00 0.00 0.00 67 1010.0
20260506180834 6 241 3.2 0.0 0.00 0.00 0.00 67 1010.0
20260506180400 6 241 4.8 0.0 0.00 0.00 0.00 67 1010.0
20260506175846 6 245 6.4 0.0 0.00 0.00 0.00 66 1009.9
20260506175339 6 223 6.4 0.0 0.00 0.00 0.00 65 1009.9
20260506174831 6 216 4.8 0.0 0.00 0.00 0.00 64 1009.9
20260506174344 6 227 4.8 0.0 0.00 0.00 0.00 65 1009.9
20260506173836 6 228 6.4 0.0 0.00 0.00 0.00 65 1009.9
20260506173331 6 254 8.0 0.0 0.00 0.00 0.00 64 1009.9
20260506172845 6 252 9.7 0.0 0.00 0.00 0.00 64 1009.7
20260506172338 6 217 9.7 0.0 0.00 0.00 0.00 64 1009.7
20260506171830 6 248 11.3 0.0 0.00 0.00 0.00 63 1009.7
20260506171355 6 257 11.3 0.0 0.00 0.00 0.00 63 1009.6
20260506170842 7 224 9.7 0.0 0.00 0.00 0.00 62 1009.6
20260506170336 7 202 9.7 0.0 0.00 0.00 0.00 62 1009.6
20260506165848 7 228 8.0 0.0 0.00 0.00 0.00 60 1009.5
20260506165341 7 228 9.7 0.0 0.00 0.00 0.00 60 1009.5
20260506164840 7 227 9.7 0.0 0.00 0.00 0.00 59 1009.5
20260506164333 7 271 11.3 0.0 0.00 0.00 0.00 58 1009.5
20260506163845 7 216 11.3 0.0 0.00 0.00 0.00 58 1009.5
20260506163344 7 267 12.9 0.0 0.00 0.00 0.00 57 1009.5
20260506162832 7 265 12.9 0.0 0.00 0.00 0.00 57 1009.5
20260506162355 7 251 11.3 0.0 0.00 0.00 0.00 57 1009.5
20260506161837 7 255 11.3 0.0 0.00 0.00 0.00 56 1009.5
20260506161335 7 199 9.7 0.0 0.00 0.00 0.00 57 1009.4
20260506160830 7 255 8.0 0.0 0.00 0.00 0.00 57 1009.4
20260506160357 7 226 9.7 0.0 0.00 0.00 0.00 58 1009.4
20260506155850 7 265 9.7 0.0 0.00 0.00 0.00 57 1009.4
20260506155343 7 227 12.9 0.0 0.00 0.00 0.00 59 1009.4
20260506154838 7 279 14.5 0.0 0.00 0.00 0.00 58 1009.4
20260506154334 7 228 12.9 0.0 0.00 0.00 0.00 58 1009.3
20260506153845 7 248 12.9 0.0 0.00 0.00 0.00 58 1009.3
20260506153344 7 231 12.9 0.0 0.00 0.00 0.00 57 1009.3
20260506152833 7 264 12.9 0.0 0.00 0.00 0.00 58 1009.3
20260506152341 7 255 14.5 0.0 0.00 0.00 0.00 58 1009.3
20260506151833 7 272 16.1 0.0 0.00 0.00 0.00 57 1009.3
20260506151357 7 228 14.5 0.0 0.00 0.00 0.00 56 1009.1
20260506150850 7 264 11.3 0.0 0.00 0.00 0.00 57 1009.1
20260506150349 7 230 11.3 0.0 0.00 0.00 0.00 57 1009.1
20260506145841 7 235 12.9 0.0 0.00 0.00 0.00 56 1009.0
20260506145338 7 244 14.5 0.0 0.00 0.00 0.00 58 1009.0
20260506144834 7 306 12.9 0.0 0.00 0.00 0.00 56 1009.0
20260506144329 7 275 12.9 0.0 0.00 0.00 0.00 56 1009.0
20260506143847 7 245 12.9 0.0 0.00 0.00 0.00 57 1009.0
20260506143338 7 226 16.1 0.0 0.00 0.00 0.00 57 1009.0
20260506142832 7 257 12.9 0.0 0.00 0.00 0.00 58 1009.0
20260506142345 7 265 12.9 0.0 0.00 0.00 0.00 57 1009.0
20260506141837 7 231 14.5 0.0 0.00 0.00 0.00 58 1009.0
20260506141330 7 298 14.5 0.0 0.00 0.00 0.00 57 1009.0
20260506140841 7 296 14.5 0.0 0.00 0.00 0.00 58 1009.0
20260506140340 7 289 12.9 0.0 0.00 0.00 0.00 58 1009.0
20260506135830 7 223 11.3 0.0 0.00 0.00 0.00 58 1008.9
20260506135353 7 228 9.7 0.0 0.00 0.00 0.00 57 1008.9
20260506134851 7 197 11.3 0.0 0.00 0.00 0.00 57 1008.9
20260506134347 7 237 12.9 0.0 0.00 0.00 0.00 57 1008.8
20260506133839 7 258 14.5 0.0 0.00 0.00 0.00 56 1008.8
20260506133334 7 227 14.5 0.0 0.00 0.00 0.00 56 1008.8
20260506132844 7 276 12.9 0.0 0.00 0.00 0.00 55 1008.7
20260506132336 7 276 11.3 0.0 0.00 0.00 0.00 56 1008.7
20260506131848 7 193 12.9 0.0 0.00 0.00 0.00 56 1008.7
20260506131345 7 285 11.3 0.0 0.00 0.00 0.00 56 1008.5
20260506130840 7 257 11.3 0.0 0.00 0.00 0.00 57 1008.5
20260506130339 7 211 12.9 0.0 0.00 0.00 0.00 58 1008.5
20260506125832 7 267 12.9 0.0 0.00 0.00 0.00 59 1008.5
20260506125353 7 268 11.3 0.0 0.00 0.00 0.00 59 1008.5
20260506124848 7 207 12.9 0.0 0.00 0.00 0.00 59 1008.5
20260506124341 7 221 12.9 0.0 0.00 0.00 0.00 60 1008.5
20260506123836 7 226 12.9 0.0 0.00 0.00 0.00 62 1008.5
20260506123331 6 220 11.3 0.0 0.00 0.00 0.00 62 1008.5
20260506122845 6 204 11.3 0.0 0.00 0.00 0.00 62 1008.4
20260506122338 6 226 12.9 0.0 0.00 0.00 0.00 63 1008.4
20260506121833 6 240 12.9 0.0 0.00 0.00 0.00 64 1008.4
20260506121358 6 219 11.3 0.0 0.00 0.00 0.00 65 1008.3
20260506120842 6 245 11.3 0.0 0.00 0.00 0.00 65 1008.3
20260506120355 6 240 12.9 0.0 0.00 0.00 0.00 64 1008.3
20260506115830 6 216 11.3 0.0 0.00 0.00 0.00 63 1008.1
20260506115354 6 282 11.3 0.0 0.00 0.00 0.00 65 1008.1
20260506114846 5 204 11.3 0.0 0.00 0.00 0.00 65 1008.1
20260506114339 5 281 9.7 0.0 0.00 0.00 0.00 65 1008.0
20260506113834 5 190 9.7 0.0 0.00 0.00 0.00 67 1008.0
20260506113349 5 228 9.7 0.0 0.00 0.00 0.00 67 1008.0
20260506112844 5 210 9.7 0.0 0.00 0.00 0.00 66 1007.9
20260506112337 5 228 11.3 0.0 0.00 0.00 0.00 67 1007.9
20260506111831 5 216 11.3 0.0 0.00 0.00 0.00 66 1007.9
20260506111327 5 272 11.3 0.0 0.00 0.00 0.00 67 1007.7
20260506110851 5 228 12.9 0.0 0.00 0.00 0.00 66 1007.7
20260506110348 5 248 11.3 0.0 0.00 0.00 0.00 68 1007.7
20260506105838 5 257 11.3 0.0 0.00 0.00 0.00 68 1007.5
20260506105331 5 261 12.9 0.0 0.00 0.00 0.00 69 1007.5
20260506104844 5 226 12.9 0.0 0.00 0.00 0.00 68 1007.5
20260506104337 5 244 12.9 0.0 0.00 0.00 0.00 69 1007.4
20260506103833 5 247 11.3 0.0 0.00 0.00 0.00 69 1007.4
20260506103348 5 189 11.3 0.0 0.00 0.00 0.00 68 1007.4
20260506102840 5 227 12.9 0.0 0.00 0.00 0.00 69 1007.2
20260506102333 5 193 12.9 0.0 0.00 0.00 0.00 69 1007.2
20260506101837 5 228 12.9 0.0 0.00 0.00 0.00 69 1007.2
20260506101345 4 228 12.9 0.0 0.00 0.00 0.00 68 1006.9
20260506100837 4 224 11.3 0.0 0.00 0.00 0.00 69 1006.9